www.pogodaiklimat.ru

Погода и климат >> Архив погоды >> Испания >> Мадрид


АРХИВ ПОГОДЫ в Мадриде

Время (UTC), дата Ветер
(напр.,м/с)
 
Видим.   Явления Облачность Т
(С)
Тd
(С)
f
(%)
Тe
(С)
Тes
(С)
Комфортность P
(гПа)
Po
(гПа)
Тmin
(С)
Tmax
(С)
R
(мм)
R24
(мм)
S
(см)
16 9.06 Ю 7 25 км 1/1 1500 м
[Cu hum]
+27.8 -1.5 15 +25 +28 комфорт 1010.3 946.3
17 9.06 ЮЗ 6 30 км 1/1 1500 м
[Cu hum Ac trans]
+27.2 -1.7 15 +25 +26 комфорт 1010.1 946.0
18 9.06 ЮЗ 7 30 км 1/1 1500 м
[Cu hum Ac trans]
+26.4 -1.6 16 +24 +25 комфорт 1010.4 946.1 +27.8
19 9.06 ЮЗ 7 30 км 4/0
[Ac und Ci fib]
+24.9 -0.3 19 +23 +23 комфорт 1011.0 946.4
20 9.06 З 5 30 км 1/0
[Ci fib]
+24.0 +1.6 23 +23 +23 комфорт 1011.6 946.7
21 9.06 З 5 30 км 5/0
[Ci fib]
+22.5 +0.9 24 +22 +22 комфорт 1012.9 947.6
22 9.06 З 5 30 км 4/0
[Ci fib]
+20.9 +2.2 29 +21 +21 комфорт 1013.6 948.0
23 9.06 С 1 30 км 1/0
[Ci fib]
+18.7 +2.1 33 +20 +20 тепло 1014.5 948.4
00 10.06 СВ 2 30 км ясно +16.3 +1.6 37 +17 +17 по сезону 1015.6 948.8
01 10.06 В 2 30 км 1/1
[Cu hum]
+16.3 +1.8 38 +17 +17 по сезону 1015.8 949.0
02 10.06 Ю 1 30 км 1/0
[Ci fib]
+15.5 +2.2 41 +16 +16 по сезону 1016.0 949.0
03 10.06 В 2 30 км ясно +15.0 +4.4 49 +15 +15 по сезону 1015.5 948.5
04 10.06 В 2 30 км ясно +14.1 +5.7 57 +14 +14 по сезону 1015.8 948.6
05 10.06 СВ 1 30 км 1/0
[Ac lent]
+12.6 +6.0 64 +13 +13 по сезону 1016.8 949.2
06 10.06 В 1 30 км ясно +14.0 +7.1 63 +14 +16 по сезону 1016.4 949.1 +12.6
07 10.06 СВ 2 30 км ясно +17.1 +7.7 54 +17 +21 холодно 1015.8 949.3
08 10.06 С 2 30 км 3/0
[Ci fib]
+19.0 +7.0 46 +20 +27 по сезону 1015.4 949.3
09 10.06 СВ 2 30 км 3/0
[Ci]
+21.1 +5.9 37 +22 +32 комфорт 1014.7 949.1
10 10.06 ЮЗ 2 30 км 1/1 2000 м
[Cu hum]
+22.2 +4.8 32 +22 +36 комфорт 1014.1 948.7
11 10.06 З 1 25 км 5/3 2000 м
[Cu hum Ci fib]
+23.7 +4.5 29 +23 +38 комфорт 1013.5 948.5
12 10.06 ЮЗ 3 30 км 5/3 2000 м
[Cu hum Ci fib]
+24.8 +4.5 27 +24 +35 комфорт 1012.6 947.9
13 10.06 З 3 24 км 6/4 2000 м
[Cu hum Ci sp]
+25.2 +3.8 25 +24 +34 комфорт 1011.7 947.1
14 10.06 СВ 1 25 км 5/3 2000 м
[Cu hum Ci sp]
+26.0 +3.3 23 +25 +38 комфорт 1010.7 946.4
15 10.06 З 5 30 км 6/1 2000 м
[Cu hum Cs]
+27.3 -0.7 16 +25 +31 комфорт 1009.9 945.8
16 10.06 З 7 30 км 5/1 2000 м
[Cu hum Cc]
+26.7 -2.1 15 +24 +27 комфорт 1009.6 945.4
17 10.06 З 8 30 км 4/1 2000 м
[Cu hum Cc]
+26.5 -1.6 16 +24 +25 комфорт 1009.3 945.1
18 10.06 З 6 30 км 1/0
[Cc]
+25.8 -1.9 16 +24 +24 комфорт 1008.9 944.6 +27.3
19 10.06 СЗ 6 30 км 1/0
[Cc]
+24.3 -3.2 16 +22 +23 комфорт 1009.2 944.5
20 10.06 СЗ 6 30 км 1/0
[Ac lent]
+22.4 -3.3 18 +21 +21 комфорт 1010.0 944.8
21 10.06 З 3 30 км 1/0
[Ci fib]
+21.1 -3.5 19 +20 +20 прохладно 1010.7 945.2
22 10.06 СВ 2 30 км 3/0
[Ci sp]
+17.5 -2.8 25 +18 +18 по сезону 1011.7 945.4
23 10.06 СВ 1 30 км 3/0
[Ci sp]
+16.3 -2.3 28 +18 +18 по сезону 1011.8 945.2
00 11.06 В 2 30 км 1/0
[Ci sp]
+16.5 +0.6 34 +17 +17 по сезону 1011.4 944.9
01 11.06 С 1 30 км 6/0
[Ac As Cs]
+15.9 +1.2 37 +17 +17 по сезону 1011.0 944.4
02 11.06 В 2 30 км 9/0
[Ac As Cs]
+15.9 +1.7 38 +16 +16 по сезону 1010.5 944.0
03 11.06 В 3 30 км 9/0
[Ac As Cs]
+15.7 +2.1 40 +16 +16 по сезону 1010.0 943.5
04 11.06 В 2 30 км 10/0
[Ac As Cs]
+15.5 +2.0 40 +16 +16 тепло 1009.9 943.3
05 11.06 В 2 30 км 9/1 2000 м
[Sc Ac As Cc]
+15.1 +2.9 44 +15 +15 по сезону 1010.4 943.7
06 11.06 СВ 5 30 км 9/3 2000 м
[Sc Ac As Ci sp]
+15.8 +4.2 46 +15 +15 по сезону 1010.4 943.9 +15.0
07 11.06 С 6 30 км 9/1 2000 м
[Sc Ac As Ci sp]
+15.4 +4.7 49 +14 +15 очень
холодно
1010.9 944.3
08 11.06 СВ 4 30 км 9/1
[Cu hum Ac As Ci sp]
+16.6 +4.6 45 +16 +18 холодно 1011.1 944.7
09 11.06 С 5 30 км 9/9 1500 м
[Sc Ac trans]
+17.7 +4.6 42 +17 +18 прохладно 1011.1 945.0
10 11.06 С 7 30 км 9/8 1000 м
[Cu Sc Ac As]
+16.3 +3.4 42 +15 +16 очень
холодно
1012.1 945.6
11 11.06 С 6 30 км 9/8 1500 м
[Cu Sc Ac As]
+18.3 +3.3 37 +18 +19 очень
холодно
1011.8 945.8
12 11.06 С 7 30 км 9/9
[Cu Sc Ac As]
+19.2 +1.6 31 +19 +19 очень
холодно
1011.9 946.0
13 11.06 С 5 30 км 9/3 2000 м
[Cu hum Ac As]
+20.8 +0.7 26 +21 +24 комфорт 1011.5 945.9
14 11.06 С 8 30 км 8/4 2000 м
[Cu Sc Ac As]
+20.9 +0.7 26 +21 +21 комфорт 1011.3 945.8
15 11.06 С 5 30 км 6/1
[Cu Sc Ac cuf]
+22.2 -3.3 18 +21 +25 комфорт 1010.9 945.6
16 11.06 С 7 30 км 5/0
[Ac cuf]
+21.7 -2.6 19 +21 +23 комфорт 1010.9 945.5
17 11.06 С 7 30 км 1/0
[Ac cuf]
+21.3 -3.3 19 +20 +22 очень
холодно
1011.1 945.6
18 11.06 С 6 30 км 1/0
[Ac cuf]
+20.8 -3.0 20 +20 +21 очень
холодно
1011.6 946.0 +22.2
19 11.06 С 5 30 км 1/0
[Ac cuf]
+19.7 -3.9 20 +19 +20 холодно 1012.2 946.4
20 11.06 С 3 30 км ясно +17.0 -2.7 26 +17 +17 холодно 1013.4 946.9
21 11.06 С 2 30 км ясно +15.1 -2.8 29 +15 +15 очень
холодно
1014.3 947.3
22 11.06 В 1 30 км ясно +13.8 -3.1 31 +14 +14 прохладно 1014.7 947.3
23 11.06 СВ 1 30 км ясно +12.6 -3.3 33 +13 +13 холодно 1014.7 947.2
00 12.06 СЗ 2 30 км ясно +11.1 -2.4 39 +10 +10 очень
холодно
1015.0 947.1
01 12.06 С 2 30 км ясно +9.6 -2.1 44 +9 +9 очень
холодно
1015.3 947.0
02 12.06 СЗ 3 30 км ясно +8.7 -2.0 47 +7 +7 очень
холодно
1015.5 947.0
03 12.06 С 2 30 км ясно +7.7 -1.8 51 +6 +6 очень
холодно
1015.6 946.8
04 12.06 СЗ 1 30 км ясно +6.5 -1.4 57 +6 +6 очень
холодно
1016.0 946.9
05 12.06 штиль 0 30 км ясно +5.8 -0.9 62 +5 +5 очень
холодно
1016.5 947.2
06 12.06 штиль 0 30 км ясно +7.7 +0.6 61 +7 +9 очень
холодно
1016.3 947.5 +5.6
07 12.06 С 2 30 км ясно +11.8 +1.4 49 +11 +15 очень
холодно
1015.4 947.7
08 12.06 СЗ 1 30 км ясно +14.6 +1.9 42 +15 +24 холодно 1014.8 947.7
09 12.06 Ю 2 30 км ясно +17.2 +2.4 37 +18 +29 прохладно 1013.9 947.5
10 12.06 ЮВ 3 30 км 1/1 2000 м
[Cu hum]
+19.1 +2.0 32 +20 +31 очень
холодно
1013.1 947.1
11 12.06 Ю 2 30 км 1/1 2000 м
[Cu hum]
+21.4 -0.3 23 +21 +38 комфорт 1011.9 946.4
12 12.06 ЮЗ 3 30 км 1/1 2000 м
[Cu hum]
+22.8 -2.1 19 +22 +38 комфорт 1010.8 945.7
13 12.06 Ю 4 30 км 1/1 2000 м
[Cu hum]
+23.5 -2.7 17 +22 +35 комфорт 1009.8 944.9
14 12.06 Ю 3 30 км 1/1 2000 м
[Cu hum]
+24.4 -3.1 16 +23 +35 комфорт 1008.7 944.1
15 12.06 ЮВ 5 30 км 1/1
[Cu hum]
+24.7 -3.7 15 +23 +29 комфорт 1007.8 943.3
16 12.06 Ю 4 30 км 1/1
[Cu hum]
+25.4 -4.1 14 +23 +29 комфорт 1007.3 943.0
17 12.06 ЮЗ 5 30 км 1/1
[Cu hum]
+25.5 -7.2 11 +23 +25 комфорт 1006.8 942.5
18 12.06 Ю 4 30 км 1/1 2000 м
[Cu hum]
+25.4 -4.7 13 +23 +24 комфорт 1006.6 942.3 +25.8
19 12.06 ЮЗ 2 30 км ясно +24.8 -3.6 15 +23 +23 комфорт 1006.5 942.1
20 12.06 З 3 30 км ясно +22.5 -3.8 17 +21 +21 комфорт 1007.1 942.2
21 12.06 ЮЗ 1 30 км ясно +19.6 -4.0 20 +21 +21 комфорт 1008.3 942.7
22 12.06 В 1 30 км ясно +16.7 -2.9 26 +18 +18 по сезону 1009.0 942.7
23 12.06 В 2 30 км ясно +15.3 -3.6 27 +16 +16 прохладно 1009.5 942.9
00 13.06 ЮВ 4 30 км ясно +16.5 +6.8 53 +16 +16 по сезону 1009.1 942.9
01 13.06 ЮВ 3 30 км ясно +16.2 +7.1 55 +16 +16 по сезону 1009.2 942.9
02 13.06 ЮВ 5 30 км 4/0
[Ci fib]
+15.4 +7.2 58 +14 +14 прохладно 1009.3 942.8
03 13.06 В 2 30 км ясно +14.5 +8.0 65 +15 +15 по сезону 1009.7 943.0
04 13.06 С 2 30 км ясно +11.4 +3.2 57 +10 +10 холодно 1011.0 943.4
05 13.06 СЗ 2 30 км 1/1
[Cu hum]
+11.0 +3.6 60 +10 +10 холодно 1011.6 944.0
06 13.06 СЗ 3 28 км 1/1 600 м
[Cu hum]
+12.4 +3.1 53 +11 +12 прохладно 1011.4 944.0 +11.0
07 13.06 С 3 30 км 3/1 1000 м
[Cu hum Ac trans]
+16.0 +6.0 51 +16 +18 очень
холодно
1010.9 944.4
08 13.06 В 2 30 км 4/1 1000 м
[Cu hum Ac trans]
+18.8 +9.4 54 +20 +25 прохладно 1010.2 944.5
09 13.06 ЮВ 3 30 км 3/1
[Cu hum As trans Ci fib]
+20.7 +9.3 48 +23 +23 комфорт 1009.4 944.1
10 13.06 Ю 2 30 км 3/1 600 м
[Cu hum As trans Ci fib]
+22.6 +8.4 40 +24 +37 комфорт 1008.8 943.9
11 13.06 Ю 5 30 км 4/1 2000 м
[Cu hum Ac trans]
+25.0 +5.7 29 +25 +33 комфорт 1007.6 943.3
12 13.06 Ю 5 30 км 3/1 2000 м
[Cu hum Ac trans]
+27.0 +4.1 23 +26 +34 жарко 1006.5 942.7
13 13.06 Ю 8 30 км 3/1 1000 м
[Cu hum Ci fib]
+27.6 +1.7 19 +26 +29 жарко 1005.8 942.1
14 13.06 ЮВ 4 30 км 3/1 1000 м
[Cu hum Ci fib]
+28.6 +1.9 18 +26 +36 жарко 1004.9 941.4
15 13.06 Ю 5 30 км 3/1 2000 м
[Cu hum Ac trans Ci fib]
+28.5 +1.1 17 +26 +32 жарко 1004.3 940.8
16 13.06 Ю 6 30 км 8/3 2000 м
[Cu hum Ac trans Ci fib]
+28.8 -0.2 15 +26 +28 жарко 1004.0 940.6
17 13.06 ЮЗ 7 25 км 6/1 1000 м
[Cu hum As trans Ci fib]
+28.6 -0.6 15 +26 +27 жарко 1003.8 940.3
18 13.06 ЮЗ 6 30 км 5/1 1000 м
[Cu Sc As trans Ci sp]
+27.9 +0.6 17 +26 +26 жарко 1003.8 940.2 +29.3
19 13.06 З 6 30 км 5/3 2000 м
[Cu med, cong Ac cast Ci sp]
+26.4 +0.2 18 +25 +25 комфорт 1004.7 940.8
20 13.06 З 6 30 км 4/0
[Ac cast Ci sp]
+24.2 -0.2 20 +23 +23 комфорт 1005.8 941.4
21 13.06 СЗ 3 30 км 3/0
[Ac cast Ci sp]
+22.9 -1.3 20 +22 +22 комфорт 1006.9 942.1
22 13.06 С 2 30 км 3/0
[Ac cast Ci sp]
+20.7 -0.2 25 +21 +21 комфорт 1008.1 942.7
23 13.06 ЮВ 4 30 км 5/0
[Ac cast Ci sp]
+20.9 +0.1 25 +21 +21 комфорт 1008.6 943.2
00 14.06 ЮВ 2 30 км 3/0
[Ac cast Ci sp]
+19.1 +0.1 28 +20 +20 тепло 1008.8 943.1
01 14.06 ЮВ 2 30 км 4/0
[Ac cast Ci sp]
+18.0 +0.6 31 +19 +19 тепло 1009.2 943.2
02 14.06 ЮВ 3 30 км 3/0
[Ac trans Ci sp]
+17.5 +6.7 49 +18 +18 тепло 1008.9 942.9
03 14.06 Ю 3 30 км 4/0
[Ac lent Ci sp]
+17.7 +7.7 52 +18 +18 тепло 1009.0 943.1
04 14.06 СЗ 2 30 км 6/1 1500 м
[Sc Ac lent Ci sp]
+14.9 +1.4 40 +15 +15 по сезону 1010.0 943.3
05 14.06 СЗ 2 30 км 4/0
[Ac cast Ci sp]
+12.3 +0.4 44 +12 +12 прохладно 1011.2 943.8
06 14.06 С 1 30 км 4/0
[Ac cast Ci sp]
+13.8 +0.8 41 +14 +15 по сезону 1011.2 944.1 +12.2
07 14.06 ЮЗ 3 28 км 3/0
[Ac cast Ci sp]
+18.7 +2.3 33 +19 +22 холодно 1010.7 944.8
08 14.06 ЮЗ 7 23 км 1/0
[Ac cast Ci sp]
+21.3 +3.0 30 +21 +23 комфорт 1010.1 944.8
09 14.06 ЮЗ 7 30 км 3/0
[Ac lent Ci fib]
+22.2 +3.7 30 +22 +25 комфорт 1010.1 945.0
10 14.06 ЮЗ 5 25 км 1/0
[Ac lent Ci fib]
+23.1 +3.6 28 +23 +30 комфорт 1009.9 945.0
11 14.06 ЮЗ 6 30 км ясно +23.6 +2.8 26 +23 +30 комфорт 1009.8 945.0
12 14.06 ЮЗ 8 30 км 1/1 1500 м
[Cu hum]
+24.8 +0.8 21 +24 +27 комфорт 1009.9 945.3
13 14.06 ЮЗ 7 30 км 1/1 1500 м
[Cu hum]
+25.4 +1.6 21 +24 +29 комфорт 1009.5 945.1
14 14.06 ЮЗ 8 30 км 1/1 2000 м
[Cu hum]
+25.6 -0.3 18 +24 +27 комфорт 1009.4 945.0
15 14.06 ЮЗ 9 25 км 1/1 2000 м
[Cu hum]
+25.5 +1.4 21 +24 +26 комфорт 1009.3 944.9
16 14.06 ЮЗ 8 30 км ясно +25.3 0.0 19 +24 +25 комфорт 1009.2 944.8
17 14.06 ЮЗ 7 28 км ясно +24.5 +0.1 20 +23 +24 комфорт 1009.5 944.9
18 14.06 ЮЗ 8 30 км ясно +23.8 0.0 21 +23 +23 комфорт 1010.4 945.6 +26.0
19 14.06 ЮЗ 8 30 км 1/0
[Ci fib]
+22.1 +0.6 24 +22 +22 комфорт 1011.7 946.4
20 14.06 ЮЗ 7 30 км ясно +20.4 +1.8 29 +20 +20 холодно 1012.8 947.2
21 14.06 ЮЗ 6 30 км ясно +19.5 +1.9 31 +19 +19 прохладно 1014.1 948.2
22 14.06 ЮЗ 7 30 км ясно +18.6 +2.0 33 +18 +18 по сезону 1014.6 948.4
23 14.06 ЮЗ 6 30 км ясно +17.4 +2.2 36 +17 +17 по сезону 1015.6 949.1
00 15.06 ЮЗ 6 30 км ясно +16.5 +2.1 38 +15 +15 прохладно 1015.8 949.1
01 15.06 ЮЗ 6 30 км ясно +15.9 +2.3 40 +15 +15 прохладно 1016.1 949.2
02 15.06 ЮЗ 6 30 км ясно +15.3 +2.4 42 +14 +14 прохладно 1016.5 949.4
03 15.06 ЮЗ 6 30 км ясно +14.7 +2.9 45 +13 +13 прохладно 1016.8 949.6
04 15.06 ЮВ 2 30 км ясно +13.4 +3.2 50 +13 +13 прохладно 1017.5 949.9
05 15.06 В 2 30 км ясно +11.5 +2.8 55 +11 +11 прохладно 1018.7 950.7
06 15.06 В 2 30 км ясно +12.3 +3.8 56 +12 +13 прохладно 1019.0 951.2 +10.9
07 15.06 В 1 30 км ясно +15.9 +4.0 45 +17 +21 очень
холодно
1018.7 951.6
08 15.06 С 2 30 км ясно +17.7 +3.6 39 +18 +25 холодно 1018.6 952.0
09 15.06 Ю 2 30 км ясно +19.1 +3.7 36 +20 +31 по сезону 1018.2 951.9
10 15.06 ЮЗ 3 30 км ясно +20.7 +3.0 31 +22 +36 комфорт 1017.9 952.0
11 15.06 Ю 3 30 км ясно +21.6 +2.3 28 +21 +38 комфорт 1017.6 951.9
12 15.06 В 2 21 км ясно +22.7 +2.7 27 +22 +44 комфорт 1017.0 951.5
13 15.06 Ю 3 30 км ясно +24.0 +1.6 23 +23 +39 комфорт 1016.2 951.0
14 15.06 ЮЗ 3 29 км ясно +25.0 +0.5 20 +24 +38 комфорт 1015.5 950.6
15 15.06 Ю 3 30 км ясно +25.7 +0.3 19 +24 +35 комфорт 1015.1 950.4
16 15.06 Ю 3 30 км ясно +26.4 +0.4 18 +25 +32 комфорт 1014.4 949.9
17 15.06 Ю 3 30 км ясно +26.4 +0.9 19 +25 +29 комфорт 1014.3 949.8
18 15.06 Ю 2 30 км ясно +26.0 +0.6 19 +24 +26 комфорт 1014.4 949.8 +26.8
19 15.06 Ю 4 30 км ясно +25.0 -0.2 19 +23 +24 комфорт 1014.9 950.0
20 15.06 Ю 3 30 км ясно +23.0 -0.5 21 +22 +22 комфорт 1015.7 950.3
21 15.06 Ю 3 30 км ясно +22.1 -1.3 21 +21 +21 комфорт 1016.7 951.1
22 15.06 ЮВ 1 30 км ясно +18.8 -0.6 27 +20 +20 по сезону 1017.7 951.3
23 15.06 С 2 30 км ясно +16.7 -0.1 32 +17 +17 по сезону 1018.4 951.5
00 16.06 С 2 30 км ясно +15.2 +0.6 37 +15 +15 прохладно 1018.8 951.5
01 16.06 СЗ 2 30 км 1/0
[Ci fib]
+13.8 +0.4 40 +14 +14 прохладно 1018.8 951.3
02 16.06 С 1 30 км 1/0
[Ci fib]
+12.5 +0.2 43 +13 +13 прохладно 1019.1 951.3
03 16.06 СЗ 2 30 км 4/0
[Ci]
+11.1 +0.8 49 +11 +11 холодно 1019.3 951.1
04 16.06 С 2 30 км 1/0
[Ci fib]
+11.8 +2.0 51 +11 +11 прохладно 1019.1 951.1
05 16.06 С 2 30 км 4/0
[Ci fib]
+11.2 +2.2 54 +10 +10 холодно 1019.6 951.4
06 16.06 С 1 30 км 4/0
[Ci fib]
+13.3 +4.1 54 +14 +15 по сезону 1019.4 951.8 +11.1
07 16.06 С 1 30 км 1/0
[Ci fib]
+16.8 +4.1 43 +18 +22 холодно 1019.1 952.2
08 16.06 С 1 30 км 3/0
[Ci sp]
+20.0 +3.6 34 +22 +29 комфорт 1018.4 952.3
09 16.06 Ю 2 30 км 4/0
[Ci sp]
+22.8 +3.3 28 +23 +34 комфорт 1017.4 951.9
10 16.06 ЮЗ 2 27 км 4/0
[Ac trans Ci sp]
+24.5 +2.6 24 +24 +37 комфорт 1016.8 951.7
11 16.06 З 2 28 км 6/0
[Ac und Cs]
+26.8 +2.6 21 +25 +39 комфорт 1015.8 951.3
12 16.06 ЮЗ 2 30 км 9/1
[Cu hum Ac und Cs]
+27.8 +2.8 20 +26 +36 жарко 1015.0 950.8
13 16.06 Ю 2 30 км 9/0
[Ac und Cs]
+28.6 +2.9 19 +27 +39 жарко 1014.1 950.1
14 16.06 ЮЗ 2 30 км 8/0
[Ac und Cs]
+29.2 +2.4 18 +27 +37 жарко 1013.4 949.6

 

Местоположение метеостанции Мадрид (Испания): широта 40.45 долгота -3.55 высота над уровнем моря 582 м.

В архиве по умолчанию представлена погода в Мадриде за последнюю неделю. Архивные данные за месяц целиком и за предыдущие месяцы, начиная с января 2011 года, Вы можете получить, выбрав интересующий диапазон дат из раскрывающегося списка и нажав кнопку "Ввод!".


*Определитесь, кто Вы:
робот инопланетянин человек

Внимание! Время в таблицах - всемирное. Для получения местного времени необходимо прибавить поправку, которая равна 1 ч.

Смотрите также архив погоды в соседних городах и на ближайших метеорологических станциях:

Погода в Мадриде Буэн-Ретиро (Испания) (12 км)
Погода в Мадриде университет (Испания) (14 км)
Погода в Мадрид аэропорту (Испания) (22 км)
Погода в Мадриде Кольменар (Испания) (33 км)
Погода в Гвадалахаре (Испания) (39 км)
Погода в Аранхуэсе (Испания) (42 км)
Погода в Навасерраде (Испания) (54 км)
Погода в Альто-де-лос-Леоне (Испания) (58 км)
Погода в Робледо-де-Чавеле (Испания) (59 км)
Погода в Буитраго (Испания) (62 км)

Пояснения к столбцам:

Ветер - указаны скорость ветра в м/с - средняя за 10 мин, порывы в срок и между сроками (в фигурных скобках) и направление, откуда дует ветер: С - северный, СВ - северо-восточный, В - восточный, ЮВ - юго-восточный, Ю - южный, ЮЗ - юго-западный, З - западный, СЗ - северо-западный.
Видимость - горизонтальная дальность видимости в метрах или километрах. При видимости от 1 до 10 км при отсутствии осадков обычно наблюдается дымка, при ухудшении видимости до 1 км и менее - туман. В сухую погоду видимость может ухудшаться дымом, пылью или мглою.
Явления - указаны атмосферные явления, наблюдавшиеся в срок или в последний час перед сроком; фигурными скобками обозначены явления, наблюдавшиеся между сроками (за 1-3 часа до срока); квадратными скобками обозначены град или гололедные отложения с указанием их диаметра в мм.
Облачность - указаны через наклонную черту общая и нижняя облачность в баллах и высота нижней границы облаков в метрах; квадратными скобками обозначены формы облаков: Ci - перистые, Cs - перисто-слоистые, Cc - перисто-кучевые, Ac - высококучевые, As - высокослоистые, Sc - слоисто-кучевые, Ns - слоисто-дождевые, Cu - кучевые, Cb - кучево-дождевые. Подробнее классификацию облаков см. в Атласе облаков (PDF).
T - Температура воздуха - температура, измеренная на высоте 2 м над землей.
Td - Температура точки росы - температура, при понижении до которой содержащийся в воздухе водяной пар достигнет насыщения.
f - Относительная влажность воздуха - влажноcть воздуха, измеренная на высоте 2 м над землей.
Te - Эффективная температура - температура, которую ощущает одетый по сезону человек в тени. Характеристика душности погоды. При расчете учитывается влияние влажности воздуха и скорости ветра на теплоощущения человека.
Tes - Эффективная температура на солнце - температура, которую ощущает человек, с поправкой на солнечный нагрев. Характеристика знойности погоды. Зависит от высоты солнца над горизонтом, облачности и скорости ветра. Ночью, в пасмурную погоду, а также при ветре 12 м/с и более поправка равна нулю.
P - Атмосферное давление - приведенное к уровню моря атмосферное давление.
Po - Атмосферное давление - измеренное на уровне метеостанции атмосферное давление.
Tmin - Минимальная температура - минимум температуры воздуха на высоте 2 м над землей.
Tmax - Максимальная температура - максимум температуры воздуха на высоте 2 м над землей.
R - Количество осадков - Количество выпавших осадков за период времени, мм. При наведении курсора мыши на число - период времени, за который выпало указанное количество осадков.
R24 - Количество осадков - Количество выпавших осадков за 24 часа, мм.
S - Снежный покров - Высота снежного покрова, см. При наведении курсора мыши на число - состояние снежного покрова и степень покрытия местности в баллах.